TVF25RY LPPR-LFRB

Flight info

Callsign TVF25RY
Flight time 1h 13m
Altitude 34000
Route TURON P600 ASDEB DCT KORUL DCT QPR
Aircraft B738/M-SDFGHIJ1RWXY/LB1

Departure

Time 2026-04-21 20:17
Airport Francisco de Sá Carneiro Airport (LPPR)

Arrival

Time 2026-04-21 21:31
Airport Brest Bretagne airport (LFRB)
Time Latitude Longitude Altitude Speed Heading
2026-04-21 19:52 41.23684 -8.67256 236 ft 0 kts 78°
2026-04-21 20:09 41.23682 -8.67269 222 ft 4 kts 79°
2026-04-21 20:10 41.23679 -8.67293 219 ft 4 kts 83°
2026-04-21 20:10 41.23680 -8.67327 239 ft 4 kts 115°
2026-04-21 20:10 41.23690 -8.67340 239 ft 1 kts 184°
2026-04-21 20:10 41.23678 -8.67341 241 ft 4 kts 182°
2026-04-21 20:11 41.23652 -8.67337 238 ft 4 kts 169°
2026-04-21 20:11 41.23645 -8.67335 238 ft 1 kts 168°
2026-04-21 20:13 41.23639 -8.67334 237 ft 2 kts 168°
2026-04-21 20:13 41.23611 -8.67331 238 ft 6 kts 185°
2026-04-21 20:14 41.23570 -8.67351 239 ft 6 kts 207°
2026-04-21 20:14 41.23530 -8.67372 239 ft 6 kts 194°
2026-04-21 20:14 41.23487 -8.67383 236 ft 6 kts 183°
2026-04-21 20:14 41.23445 -8.67376 236 ft 6 kts 169°
2026-04-21 20:15 41.23402 -8.67366 236 ft 7 kts 172°
2026-04-21 20:15 41.23351 -8.67387 236 ft 8 kts 221°
2026-04-21 20:15 41.23331 -8.67436 236 ft 6 kts 253°
2026-04-21 20:15 41.23321 -8.67498 236 ft 9 kts 259°
2026-04-21 20:16 41.23305 -8.67602 237 ft 9 kts 258°
2026-04-21 20:16 41.23297 -8.67687 237 ft 9 kts 273°
2026-04-21 20:16 41.23341 -8.67741 238 ft 9 kts 344°
2026-04-21 20:16 41.23412 -8.67764 238 ft 23 kts 348°
2026-04-21 20:17 41.23829 -8.67869 222 ft 98 kts 349°
2026-04-21 20:17 41.24709 -8.68113 207 ft 158 kts 346°
2026-04-21 20:17 41.25844 -8.68448 709 ft 172 kts 347°
2026-04-21 20:17 41.27044 -8.68768 1484 ft 177 kts 346°
2026-04-21 20:18 41.28226 -8.69069 2421 ft 172 kts 346°
2026-04-21 20:18 41.29459 -8.69381 2979 ft 192 kts 345°
2026-04-21 20:18 41.30865 -8.69741 3263 ft 220 kts 346°
2026-04-21 20:18 41.32465 -8.70148 3479 ft 245 kts 347°
2026-04-21 20:19 41.34176 -8.70587 3788 ft 265 kts 346°
2026-04-21 20:19 41.36048 -8.71076 4271 ft 282 kts 346°
2026-04-21 20:19 41.38002 -8.71591 5042 ft 289 kts 346°
2026-04-21 20:19 41.40008 -8.72123 5765 ft 298 kts 346°
2026-04-21 20:20 41.42079 -8.72656 6513 ft 306 kts 351°
2026-04-21 20:20 41.44216 -8.72473 7307 ft 310 kts 12°
2026-04-21 20:20 41.46347 -8.71881 8111 ft 314 kts 12°
2026-04-21 20:20 41.48507 -8.71280 8877 ft 320 kts 12°
2026-04-21 20:21 41.50684 -8.70692 9629 ft 326 kts 11°
2026-04-21 20:21 41.52932 -8.70103 10227 ft 336 kts 11°
2026-04-21 20:21 41.55311 -8.69493 10434 ft 361 kts 11°
2026-04-21 20:21 41.57858 -8.68847 10615 ft 384 kts 11°
2026-04-21 20:22 41.60558 -8.68164 10776 ft 406 kts 11°
2026-04-21 20:22 41.66297 -8.66706 11641 ft 427 kts 11°
2026-04-21 20:22 41.69225 -8.65958 12341 ft 429 kts 11°
2026-04-21 20:23 41.72169 -8.65205 12986 ft 433 kts 10°
2026-04-21 20:23 41.75140 -8.64442 13585 ft 438 kts 10°
2026-04-21 20:23 41.78161 -8.63670 14130 ft 442 kts 10°
2026-04-21 20:23 41.81208 -8.62890 14663 ft 447 kts
2026-04-21 20:24 41.84240 -8.62113 15193 ft 453 kts
2026-04-21 20:24 41.87356 -8.61314 15737 ft 457 kts
2026-04-21 20:24 41.90499 -8.60506 16272 ft 461 kts
2026-04-21 20:24 41.93667 -8.59691 16798 ft 466 kts
2026-04-21 20:25 41.96864 -8.58867 17302 ft 470 kts
2026-04-21 20:25 42.00094 -8.58034 17807 ft 475 kts
2026-04-21 20:25 42.03353 -8.57193 18286 ft 479 kts
2026-04-21 20:25 42.06637 -8.56346 18765 ft 481 kts
2026-04-21 20:26 42.09948 -8.55640 19262 ft 483 kts
2026-04-21 20:26 42.13289 -8.55102 19758 ft 484 kts
2026-04-21 20:26 42.16643 -8.54628 20233 ft 486 kts
2026-04-21 20:26 42.20024 -8.54157 20703 ft 489 kts
2026-04-21 20:27 42.23411 -8.53665 21144 ft 491 kts
2026-04-21 20:27 42.26781 -8.53152 21572 ft 494 kts
2026-04-21 20:27 42.30206 -8.52615 22005 ft 496 kts
2026-04-21 20:27 42.33647 -8.52067 22428 ft 499 kts
2026-04-21 20:28 42.37102 -8.51514 22846 ft 501 kts
2026-04-21 20:28 42.40574 -8.50959 23236 ft 504 kts
2026-04-21 20:28 42.44089 -8.50398 23590 ft 507 kts
2026-04-21 20:28 42.47596 -8.49839 23954 ft 507 kts
2026-04-21 20:29 42.51053 -8.49026 24292 ft 511 kts 12°
2026-04-21 20:29 42.54458 -8.47550 24631 ft 514 kts 22°
2026-04-21 20:29 42.57707 -8.45501 24992 ft 515 kts 26°
2026-04-21 20:29 42.60936 -8.43346 25318 ft 517 kts 26°
2026-04-21 20:30 42.64165 -8.41162 25614 ft 518 kts 26°
2026-04-21 20:30 42.67364 -8.39006 25897 ft 520 kts 26°
2026-04-21 20:30 42.70614 -8.36835 26196 ft 522 kts 26°
2026-04-21 20:30 42.73887 -8.34668 26484 ft 523 kts 25°
2026-04-21 20:31 42.77176 -8.32505 26800 ft 523 kts 25°
2026-04-21 20:31 42.80461 -8.30351 27239 ft 521 kts 25°
2026-04-21 20:31 42.83717 -8.28218 27700 ft 519 kts 25°
2026-04-21 20:31 42.86971 -8.26083 28151 ft 517 kts 25°
2026-04-21 20:32 42.90218 -8.23950 28559 ft 516 kts 25°
2026-04-21 20:32 42.93414 -8.21847 28935 ft 516 kts 25°
2026-04-21 20:32 42.96651 -8.19713 29353 ft 515 kts 25°
2026-04-21 20:32 42.99880 -8.17581 29798 ft 513 kts 25°
2026-04-21 20:33 43.03084 -8.15463 30187 ft 511 kts 25°
2026-04-21 20:33 43.06277 -8.13349 30539 ft 509 kts 25°
2026-04-21 20:33 43.09468 -8.11235 30870 ft 509 kts 25°
2026-04-21 20:33 43.12653 -8.09121 31192 ft 508 kts 25°
2026-04-21 20:34 43.15829 -8.07012 31520 ft 507 kts 25°
2026-04-21 20:34 43.18993 -8.04907 31869 ft 505 kts 25°
2026-04-21 20:34 43.22115 -8.02829 32178 ft 504 kts 25°
2026-04-21 20:34 43.25274 -8.00723 32491 ft 504 kts 25°
2026-04-21 20:35 43.28424 -7.98621 32831 ft 503 kts 25°
2026-04-21 20:35 43.31560 -7.96526 33170 ft 501 kts 25°
2026-04-21 20:35 43.34694 -7.94430 33481 ft 500 kts 25°
2026-04-21 20:35 43.37820 -7.92336 33762 ft 500 kts 25°
2026-04-21 20:36 43.44099 -7.88125 33782 ft 502 kts 25°
2026-04-21 20:36 43.50345 -7.83925 33774 ft 498 kts 25°
2026-04-21 20:37 43.56563 -7.79735 33777 ft 496 kts 26°
2026-04-21 20:37 43.62757 -7.75552 33774 ft 494 kts 26°
2026-04-21 20:38 43.68922 -7.71378 33772 ft 493 kts 26°
2026-04-21 20:38 43.75412 -7.66974 33787 ft 494 kts 27°
2026-04-21 20:39 43.81220 -7.63023 33782 ft 495 kts 27°
2026-04-21 20:39 43.86370 -7.59513 33781 ft 496 kts 27°
2026-04-21 20:40 43.93625 -7.54556 33783 ft 498 kts 27°
2026-04-21 20:40 43.95683 -7.53148 33784 ft 498 kts 27°
2026-04-21 20:41 44.06050 -7.46036 33782 ft 500 kts 28°
2026-04-21 20:41 44.12294 -7.41740 33785 ft 500 kts 28°
2026-04-21 20:42 44.18536 -7.37434 33783 ft 500 kts 28°
2026-04-21 20:42 44.24758 -7.33132 33782 ft 499 kts 28°
2026-04-21 20:43 44.30972 -7.28825 33782 ft 498 kts 28°
2026-04-21 20:43 44.37166 -7.24523 33781 ft 496 kts 29°
2026-04-21 20:44 44.43301 -7.20250 33780 ft 495 kts 29°
2026-04-21 20:44 44.49464 -7.15948 33781 ft 495 kts 29°
2026-04-21 20:45 44.55617 -7.11643 33779 ft 494 kts 29°
2026-04-21 20:45 44.61774 -7.07324 33780 ft 493 kts 29°
2026-04-21 20:46 44.67906 -7.03013 33784 ft 494 kts 29°
2026-04-21 20:46 44.74013 -6.98708 33781 ft 494 kts 29°
2026-04-21 20:47 44.80171 -6.94358 33780 ft 495 kts 29°
2026-04-21 20:47 44.86290 -6.89880 33786 ft 496 kts 32°
2026-04-21 20:48 44.87304 -6.89075 33785 ft 496 kts 32°
2026-04-21 20:49 45.04187 -6.74985 33792 ft 499 kts 32°
2026-04-21 20:49 45.10153 -6.70041 33789 ft 500 kts 32°
2026-04-21 20:50 45.16199 -6.65032 33794 ft 500 kts 32°
2026-04-21 20:50 45.22176 -6.60068 33798 ft 501 kts 32°
2026-04-21 20:51 45.28185 -6.55061 33801 ft 501 kts 32°
2026-04-21 20:51 45.34200 -6.50035 33798 ft 501 kts 32°
2026-04-21 20:52 45.40215 -6.44998 33799 ft 501 kts 32°
2026-04-21 20:52 45.46226 -6.39950 33807 ft 501 kts 32°
2026-04-21 20:53 45.52230 -6.34896 33814 ft 501 kts 32°
2026-04-21 20:53 45.58223 -6.29839 33813 ft 501 kts 32°
2026-04-21 20:54 45.64183 -6.24797 33819 ft 500 kts 32°
2026-04-21 20:54 45.70176 -6.19715 33824 ft 500 kts 32°
2026-04-21 20:55 45.76150 -6.14635 33832 ft 499 kts 32°
2026-04-21 20:55 45.82129 -6.09538 33836 ft 499 kts 32°
2026-04-21 20:56 45.88084 -6.04450 33837 ft 498 kts 32°
2026-04-21 20:56 45.94028 -5.99357 33840 ft 497 kts 32°
2026-04-21 20:57 45.99936 -5.94283 33853 ft 497 kts 32°
2026-04-21 20:57 46.05871 -5.89173 33853 ft 496 kts 32°
2026-04-21 20:58 46.11794 -5.84060 33860 ft 496 kts 32°
2026-04-21 20:58 46.17705 -5.78944 33865 ft 496 kts 31°
2026-04-21 20:59 46.22621 -5.74681 33867 ft 496 kts 31°
2026-04-21 20:59 46.28536 -5.69537 33871 ft 496 kts 31°
2026-04-21 21:00 46.34446 -5.64387 33890 ft 495 kts 31°
2026-04-21 21:00 46.40310 -5.59262 33878 ft 495 kts 31°
2026-04-21 21:01 46.46248 -5.54060 33876 ft 495 kts 31°
2026-04-21 21:01 46.52102 -5.48917 33903 ft 494 kts 31°
2026-04-21 21:02 46.57975 -5.43745 33890 ft 494 kts 31°
2026-04-21 21:02 46.63859 -5.38551 33904 ft 493 kts 31°
2026-04-21 21:03 46.69713 -5.33370 33905 ft 492 kts 31°
2026-04-21 21:03 46.75525 -5.28211 33909 ft 492 kts 31°
2026-04-21 21:04 46.81372 -5.23010 33906 ft 491 kts 31°
2026-04-21 21:04 46.87204 -5.17807 33924 ft 491 kts 31°
2026-04-21 21:05 46.93033 -5.12595 33922 ft 491 kts 31°
2026-04-21 21:05 46.98858 -5.07372 33929 ft 491 kts 31°
2026-04-21 21:06 47.04678 -5.02141 33935 ft 491 kts 31°
2026-04-21 21:06 47.10520 -4.96876 33933 ft 493 kts 31°
2026-04-21 21:07 47.16369 -4.91590 33937 ft 493 kts 31°
2026-04-21 21:07 47.22198 -4.86309 33947 ft 492 kts 31°
2026-04-21 21:08 47.28013 -4.81027 33949 ft 490 kts 31°
2026-04-21 21:08 47.33795 -4.75761 33668 ft 494 kts 31°
2026-04-21 21:09 47.36712 -4.73100 33387 ft 491 kts 31°
2026-04-21 21:09 47.39616 -4.70446 33120 ft 489 kts 31°
2026-04-21 21:09 47.42403 -4.67896 32868 ft 491 kts 31°
2026-04-21 21:09 47.45302 -4.65240 32364 ft 491 kts 31°
2026-04-21 21:10 47.48211 -4.62572 31642 ft 491 kts 31°
2026-04-21 21:10 47.51112 -4.59907 30862 ft 492 kts 31°
2026-04-21 21:10 47.54024 -4.57229 30094 ft 493 kts 31°
2026-04-21 21:10 47.56903 -4.54578 29178 ft 494 kts 31°
2026-04-21 21:11 47.59817 -4.51891 28263 ft 494 kts 31°
2026-04-21 21:11 47.62676 -4.49251 27380 ft 494 kts 31°
2026-04-21 21:11 47.65645 -4.46506 26410 ft 495 kts 32°
2026-04-21 21:11 47.68571 -4.43797 25554 ft 495 kts 32°
2026-04-21 21:12 47.71470 -4.41109 24906 ft 489 kts 32°
2026-04-21 21:12 47.74344 -4.38442 24239 ft 485 kts 32°
2026-04-21 21:12 47.77186 -4.35799 23561 ft 481 kts 32°
2026-04-21 21:12 47.80013 -4.33168 22773 ft 477 kts 32°
2026-04-21 21:13 47.82808 -4.30562 22072 ft 471 kts 32°
2026-04-21 21:13 47.85574 -4.27982 21392 ft 466 kts 32°
2026-04-21 21:13 47.88308 -4.25427 20722 ft 461 kts 32°
2026-04-21 21:13 47.91010 -4.22899 20059 ft 456 kts 32°
2026-04-21 21:14 47.93687 -4.20392 19402 ft 452 kts 32°
2026-04-21 21:14 47.96394 -4.18046 18733 ft 449 kts 24°
2026-04-21 21:14 47.99318 -4.16488 17982 ft 447 kts 17°
2026-04-21 21:14 48.02299 -4.15180 17240 ft 443 kts 16°
2026-04-21 21:15 48.05248 -4.13920 16553 ft 438 kts 16°
2026-04-21 21:15 48.07850 -4.12787 15957 ft 434 kts 16°
2026-04-21 21:15 48.10729 -4.11497 15305 ft 430 kts 17°
2026-04-21 21:15 48.13575 -4.10192 14670 ft 426 kts 17°
2026-04-21 21:16 48.16408 -4.08874 14022 ft 423 kts 17°
2026-04-21 21:16 48.19216 -4.07559 13324 ft 421 kts 17°
2026-04-21 21:16 48.21995 -4.06255 12662 ft 416 kts 17°
2026-04-21 21:16 48.24741 -4.04965 12048 ft 411 kts 18°
2026-04-21 21:17 48.27464 -4.03687 11484 ft 406 kts 18°
2026-04-21 21:17 48.29797 -4.02591 11252 ft 394 kts 18°
2026-04-21 21:17 48.32374 -4.01381 11061 ft 380 kts 18°
2026-04-21 21:17 48.34862 -4.00210 10845 ft 367 kts 18°
2026-04-21 21:18 48.37240 -3.99091 10698 ft 349 kts 18°
2026-04-21 21:18 48.39503 -3.98025 10533 ft 333 kts 18°
2026-04-21 21:18 48.41665 -3.97005 10381 ft 319 kts 18°
2026-04-21 21:18 48.43758 -3.96130 10227 ft 307 kts
2026-04-21 21:19 48.45843 -3.96352 10107 ft 298 kts 342°
2026-04-21 21:19 48.47643 -3.97756 9977 ft 288 kts 321°
2026-04-21 21:19 48.48983 -3.99955 9666 ft 285 kts 301°
2026-04-21 21:19 48.49990 -4.02483 9379 ft 283 kts 299°
2026-04-21 21:20 48.50973 -4.05051 9091 ft 282 kts 299°
2026-04-21 21:20 48.51939 -4.07622 8784 ft 281 kts 294°
2026-04-21 21:20 48.52383 -4.10460 8473 ft 278 kts 270°
2026-04-21 21:20 48.52416 -4.13368 8189 ft 277 kts 269°
2026-04-21 21:21 48.52429 -4.16276 7877 ft 277 kts 269°
2026-04-21 21:21 48.52442 -4.19164 7692 ft 270 kts 269°
2026-04-21 21:21 48.52458 -4.21931 7545 ft 258 kts 269°
2026-04-21 21:21 48.52475 -4.24562 7440 ft 243 kts 269°
2026-04-21 21:22 48.52492 -4.27020 7263 ft 230 kts 269°
2026-04-21 21:22 48.52510 -4.29430 6849 ft 230 kts 269°
2026-04-21 21:22 48.52526 -4.31839 6466 ft 228 kts 269°
2026-04-21 21:22 48.52544 -4.34221 6054 ft 227 kts 269°
2026-04-21 21:23 48.52561 -4.36597 5648 ft 226 kts 269°
2026-04-21 21:23 48.52578 -4.38962 5453 ft 219 kts 269°
2026-04-21 21:23 48.52595 -4.41259 5190 ft 225 kts 269°
2026-04-21 21:23 48.52611 -4.43630 5046 ft 226 kts 269°
2026-04-21 21:24 48.52627 -4.46012 5011 ft 228 kts 269°
2026-04-21 21:24 48.52643 -4.48403 5004 ft 228 kts 269°
2026-04-21 21:24 48.52658 -4.50802 5013 ft 227 kts 268°
2026-04-21 21:24 48.52352 -4.53021 4978 ft 221 kts 235°
2026-04-21 21:25 48.51299 -4.54629 4705 ft 216 kts 206°
2026-04-21 21:25 48.49995 -4.55711 4367 ft 213 kts 200°
2026-04-21 21:25 48.48685 -4.56711 4064 ft 210 kts 199°
2026-04-21 21:25 48.47392 -4.57701 3734 ft 207 kts 198°
2026-04-21 21:26 48.46125 -4.58679 3416 ft 201 kts 197°
2026-04-21 21:26 48.44911 -4.59626 3138 ft 190 kts 195°
2026-04-21 21:26 48.43796 -4.60505 3009 ft 168 kts 194°
2026-04-21 21:26 48.42784 -4.61250 2889 ft 157 kts 183°
2026-04-21 21:27 48.41900 -4.61026 2651 ft 117 kts 124°
2026-04-21 21:27 48.41684 -4.59886 2491 ft 117 kts 98°
2026-04-21 21:27 48.41567 -4.58684 2307 ft 114 kts 102°
2026-04-21 21:27 48.41501 -4.57518 2186 ft 113 kts 88°
2026-04-21 21:28 48.41643 -4.56338 2045 ft 115 kts 82°
2026-04-21 21:28 48.41833 -4.55173 1878 ft 113 kts 80°
2026-04-21 21:28 48.42300 -4.52895 1559 ft 117 kts 78°
2026-04-21 21:29 48.42552 -4.51731 1427 ft 117 kts 77°
2026-04-21 21:29 48.42815 -4.50567 1257 ft 120 kts 76°
2026-04-21 21:29 48.43084 -4.49343 1107 ft 126 kts 73°
2026-04-21 21:29 48.43379 -4.48053 935 ft 135 kts 72°
2026-04-21 21:30 48.43692 -4.46692 748 ft 138 kts 71°
2026-04-21 21:30 48.43998 -4.45332 562 ft 137 kts 71°
2026-04-21 21:30 48.44308 -4.43975 372 ft 137 kts 71°
2026-04-21 21:30 48.44601 -4.42682 302 ft 119 kts 69°
2026-04-21 21:31 48.44797 -4.41806 328 ft 59 kts 71°
2026-04-21 21:31 48.44914 -4.41290 331 ft 48 kts 71°
2026-04-21 21:31 48.45005 -4.40889 321 ft 35 kts 70°
2026-04-21 21:31 48.45060 -4.40715 320 ft 11 kts 44°
2026-04-21 21:32 48.45065 -4.40670 324 ft 2 kts 149°
2026-04-21 21:32 48.45053 -4.40687 323 ft 4 kts 231°
2026-04-21 21:32 48.45030 -4.40772 323 ft 16 kts 251°
2026-04-21 21:32 48.44981 -4.40983 323 ft 24 kts 250°
2026-04-21 21:33 48.44930 -4.41210 328 ft 23 kts 251°
2026-04-21 21:33 48.44879 -4.41431 331 ft 22 kts 251°
2026-04-21 21:33 48.44845 -4.41585 330 ft 15 kts 251°
2026-04-21 21:33 48.44817 -4.41648 327 ft 6 kts 204°
2026-04-21 21:34 48.44777 -4.41649 326 ft 5 kts 163°
2026-04-21 21:34 48.44747 -4.41633 328 ft 4 kts 161°
2026-04-21 21:34 48.44714 -4.41618 327 ft 5 kts 170°
2026-04-21 21:34 48.44679 -4.41628 328 ft 6 kts 206°
2026-04-21 21:35 48.44648 -4.41699 327 ft 11 kts 249°
2026-04-21 21:35 48.44618 -4.41825 325 ft 14 kts 250°
2026-04-21 21:35 48.44588 -4.41965 323 ft 14 kts 253°
2026-04-21 21:35 48.44551 -4.42080 323 ft 12 kts 208°
2026-04-21 21:36 48.44502 -4.42076 322 ft 6 kts 164°
2026-04-21 21:36 48.44464 -4.42055 323 ft 3 kts 159°
2026-04-21 21:36 48.44442 -4.42044 320 ft 3 kts 161°
2026-04-21 21:36 48.44431 -4.42038 322 ft 1 kts 161°